Regional Weather Roundup
Issued by NWS

Home | Current Version | Previous Version | Text Only | Print | Product List | Glossary On
Versions: 1 2 3 4 5 6 7 8 9 10 11 12 13 14 15 16 17 18 19 20 21 22 23 24 25 26 27 28 29 30 31 32 33 34
000
ASPQ40 PGUM 251313
RWRPQ
WEATHER ROUNDUP FOR THE MARIANAS AND MICRONESIA
NATIONAL WEATHER SERVICE TIYAN GU
1100 PM CHST SAT FEB 25 2017

GUZ001>004-251400-
MARIANA ISLANDS-

CITY           SKY/WX    TMP DP  RH WIND       PRES   REMARKS
GUAM AIRPORT   PTCLDY    81  73  78 E9        29.92S
ANDERSEN AFB   CLEAR     77  72  83 E13       29.93S
ROTA AIRPORT   NOT AVBL
TINIAN AP      NOT AVBL
SAIPAN AP      PTCLDY    79  75  89 E15       29.92S

$$

PMZ161-251400-
REPUBLIC OF PALAU-

CITY           SKY/WX    TMP DP  RH WIND       PRES   REMARKS
KOROR AP       CLOUDY    79  75  89 NE12G18   29.79S
KOROR WSO      NOT AVBL

$$

PMZ171>174-251400-
FEDERATED STATES OF MICRONESIA-

CITY           SKY/WX    TMP DP  RH WIND       PRES   REMARKS
YAP AIRPORT    CLOUDY    79  77  94 VRB6      29.83S
CHUUK AP       MOCLDY    82  77  83 NE12      29.80S HX  91
POHNPEI AP     CLOUDY    82  77  83 E16       29.77S HX  91
POHNPEI WSO    CLOUDY    82  75  78 E12       29.81S
KOSRAE AP      CLOUDY    81  77  89 NE23      29.77F

$$

PMZ181-251400-
REPUBLIC OF THE MARSHALL ISLANDS-

CITY           SKY/WX    TMP DP  RH WIND       PRES   REMARKS
KWAJALEIN AP   PTCLDY    82  73  74 NE22      29.83F
MAJURO AP      NOT AVBL
MAJURO WSO     MOCLDY    82  73  74 NE13      29.80F

$$




USA.gov is the U.S. government's official web portal to all federal, state and local government web resources and services.